TimeEDT,TemperatureF,Dew PointF,Humidity,Sea Level PressureIn,VisibilityMPH,Wind Direction,Wind SpeedMPH,Gust SpeedMPH,PrecipitationIn,Events,Conditions,WindDirDegrees,DateUTC
12:51 AM,75.0,61.0,62,30.07,10.0,SE,9.2,-,N/A,,Clear,140,2013-06-06 04:51:00
1:51 AM,75.0,61.0,62,30.06,10.0,SE,9.2,-,N/A,,Clear,130,2013-06-06 05:51:00
2:51 AM,73.9,61.0,64,30.04,10.0,SE,11.5,-,N/A,,Clear,140,2013-06-06 06:51:00
3:51 AM,73.9,60.1,62,30.03,10.0,SE,10.4,-,N/A,,Clear,140,2013-06-06 07:51:00
4:51 AM,73.9,61.0,64,30.03,10.0,SE,9.2,-,N/A,,Clear,130,2013-06-06 08:51:00
5:51 AM,73.9,61.0,64,30.01,10.0,ESE,10.4,-,N/A,,Clear,120,2013-06-06 09:51:00
6:51 AM,75.0,63.0,66,30.01,10.0,SE,9.2,-,N/A,,Clear,130,2013-06-06 10:51:00
8:51 AM,79.0,64.0,60,30.03,10.0,SE,10.4,-,N/A,,Clear,130,2013-06-06 12:51:00
9:51 AM,81.0,64.0,56,30.02,10.0,ESE,12.7,-,N/A,,Clear,120,2013-06-06 13:51:00
10:51 AM,82.0,64.0,54,30.02,10.0,SE,15.0,-,N/A,,Clear,130,2013-06-06 14:51:00
11:51 AM,82.0,64.0,54,30.02,10.0,SE,12.7,-,N/A,,Partly Cloudy,140,2013-06-06 15:51:00
12:51 PM,82.9,64.9,54,30.01,10.0,SE,12.7,-,N/A,,Partly Cloudy,140,2013-06-06 16:51:00
1:51 PM,84.0,64.9,53,29.99,10.0,SE,12.7,-,N/A,,Clear,140,2013-06-06 17:51:00
2:51 PM,82.9,66.9,58,29.97,10.0,SSE,12.7,-,N/A,,Clear,150,2013-06-06 18:51:00
3:51 PM,81.0,66.9,62,29.96,10.0,SE,12.7,-,N/A,,Partly Cloudy,140,2013-06-06 19:51:00
4:51 PM,80.1,68.0,67,29.94,10.0,SE,13.8,-,N/A,,Partly Cloudy,130,2013-06-06 20:51:00
5:51 PM,79.0,70.0,74,29.92,10.0,SE,13.8,-,0.00,,Mostly Cloudy,140,2013-06-06 21:51:00
6:51 PM,75.9,72.0,87,29.91,2.5,SE,11.5,-,0.10,Rain,Rain,130,2013-06-06 22:51:00
6:53 PM,75.2,71.6,89,29.91,1.2,SE,12.7,-,0.00,Rain,Rain,130,2013-06-06 22:53:00
6:59 PM,75.2,71.6,89,29.91,0.8,SE,10.4,-,0.13,Rain,Heavy Rain,130,2013-06-06 22:59:00
7:23 PM,75.2,73.4,94,29.91,3.0,SSE,16.1,21.9,0.64,Rain,Light Rain,160,2013-06-06 23:23:00
7:33 PM,75.2,73.4,94,29.91,9.0,South,16.1,-,0.64,,Overcast,170,2013-06-06 23:33:00
7:51 PM,75.9,73.0,91,29.91,7.0,SSE,11.5,-,0.65,Rain,Light Rain,160,2013-06-06 23:51:00
8:51 PM,75.9,73.0,91,29.91,10.0,South,12.7,-,0.00,,Scattered Clouds,180,2013-06-07 00:51:00
9:22 PM,77.0,73.4,89,29.91,10.0,South,11.5,-,N/A,,Mostly Cloudy,170,2013-06-07 01:22:00
9:38 PM,77.0,73.4,89,29.92,10.0,South,11.5,-,N/A,,Mostly Cloudy,180,2013-06-07 01:38:00
9:51 PM,77.0,73.0,88,29.92,10.0,SSW,11.5,-,N/A,,Scattered Clouds,200,2013-06-07 01:51:00
10:51 PM,75.9,71.1,85,29.93,10.0,SW,10.4,-,N/A,,Mostly Cloudy,220,2013-06-07 02:51:00
11:51 PM,77.0,72.0,84,29.92,10.0,SSW,8.1,-,0.00,Rain,Light Rain,210,2013-06-07 03:51:00